TimeEST,TemperatureF,Dew PointF,Humidity,Sea Level PressureIn,VisibilityMPH,Wind Direction,Wind SpeedMPH,Gust SpeedMPH,PrecipitationIn,Events,Conditions,WindDirDegrees,DateUTC
12:53 AM,57.9,52.0,81,30.08,10.0,Calm,Calm,-,N/A,,Clear,0,2013-02-05 05:53:00
1:53 AM,59.0,53.1,81,30.07,10.0,Calm,Calm,-,N/A,,Partly Cloudy,0,2013-02-05 06:53:00
2:53 AM,59.0,55.0,87,30.06,10.0,Calm,Calm,-,N/A,,Mostly Cloudy,0,2013-02-05 07:53:00
3:53 AM,57.9,55.0,90,30.05,9.0,Calm,Calm,-,N/A,,Partly Cloudy,0,2013-02-05 08:53:00
4:53 AM,55.9,54.0,93,30.05,9.0,Calm,Calm,-,N/A,,Clear,0,2013-02-05 09:53:00
5:53 AM,55.9,53.1,90,30.06,10.0,Calm,Calm,-,N/A,,Partly Cloudy,0,2013-02-05 10:53:00
6:53 AM,55.9,53.1,90,30.07,10.0,Calm,Calm,-,N/A,,Clear,0,2013-02-05 11:53:00
7:53 AM,59.0,55.0,87,30.09,9.0,Calm,Calm,-,N/A,,Clear,0,2013-02-05 12:53:00
8:53 AM,69.1,54.0,58,30.09,10.0,Calm,Calm,-,N/A,,Clear,0,2013-02-05 13:53:00
9:53 AM,72.0,55.9,57,30.10,10.0,SE,5.8,-,N/A,,Clear,140,2013-02-05 14:53:00
10:53 AM,73.9,55.9,53,30.09,10.0,SE,11.5,-,N/A,,Clear,130,2013-02-05 15:53:00
11:53 AM,75.0,57.0,53,30.09,10.0,SE,8.1,16.1,N/A,,Partly Cloudy,130,2013-02-05 16:53:00
12:53 PM,75.9,59.0,56,30.06,10.0,ESE,11.5,-,N/A,,Scattered Clouds,120,2013-02-05 17:53:00
1:53 PM,75.0,60.1,60,30.04,10.0,SSE,9.2,-,N/A,,Overcast,150,2013-02-05 18:53:00
2:53 PM,75.9,59.0,56,30.03,10.0,SE,13.8,-,N/A,,Mostly Cloudy,140,2013-02-05 19:53:00
3:53 PM,75.9,61.0,60,30.02,10.0,SE,12.7,-,N/A,,Partly Cloudy,140,2013-02-05 20:53:00
4:53 PM,73.9,62.1,66,30.02,10.0,SE,12.7,-,N/A,,Scattered Clouds,140,2013-02-05 21:53:00
5:53 PM,73.0,61.0,66,30.02,10.0,SE,8.1,-,N/A,,Mostly Cloudy,140,2013-02-05 22:53:00
6:53 PM,72.0,62.1,71,30.03,10.0,SSE,6.9,-,N/A,,Clear,150,2013-02-05 23:53:00
7:53 PM,71.1,62.1,73,30.04,10.0,SSE,4.6,-,N/A,,Clear,160,2013-02-06 00:53:00
8:53 PM,70.0,61.0,73,30.05,10.0,South,3.5,-,N/A,,Clear,190,2013-02-06 01:53:00
9:53 PM,68.0,62.1,81,30.06,10.0,Calm,Calm,-,N/A,,Clear,0,2013-02-06 02:53:00
10:53 PM,64.9,61.0,87,30.07,10.0,Calm,Calm,-,N/A,,Clear,0,2013-02-06 03:53:00
11:53 PM,64.0,60.1,87,30.06,10.0,Calm,Calm,-,N/A,,Clear,0,2013-02-06 04:53:00